Date,TemperatureHighF,TemperatureAvgF,TemperatureLowF,DewpointHighF,DewpointAvgF,DewpointLowF,HumidityHigh,HumidityAvg,HumidityLow,PressureMaxIn,PressureMinIn,WindSpeedMaxMPH,WindSpeedAvgMPH,GustSpeedMaxMPH,PrecipitationSumIn
2013-1-1,45.8,41.3,37.2,33.1,29.9,25.2,74,64,56,30.02,29.90,6,0,6,0.00
2013-1-2,39.3,33.9,27.9,30.0,21.4,16.8,71,60,45,30.25,30.00,8,1,8,0.00
2013-1-3,38.8,30.4,23.5,22.9,19.9,16.8,87,66,45,30.26,30.15,6,0,6,0.00
2013-1-4,43.9,35.7,27.0,25.0,23.0,20.9,79,61,45,30.22,30.10,16,2,16,0.00
2013-1-5,44.5,37.0,29.2,33.0,24.9,20.8,81,62,47,30.39,30.14,12,1,12,0.01
2013-1-6,51.3,43.2,30.8,35.6,31.2,27.7,95,65,44,30.21,30.02,8,1,8,0.00
2013-1-7,46.7,41.0,27.8,32.1,28.5,23.3,83,61,49,30.44,30.14,9,1,9,0.00
2013-1-8,52.5,37.9,25.0,36.3,30.2,22.7,95,76,48,30.44,30.36,7,0,7,0.00
2013-1-9,52.3,41.3,29.2,42.9,35.4,26.9,95,81,51,30.39,30.23,10,0,10,0.00
2013-1-10,51.0,49.1,46.1,33.6,33.2,32.6,59,54,51,30.43,30.37,8,1,8,0.00
2013-1-11,45.5,40.2,32.9,42.1,36.3,29.5,95,86,75,30.50,30.10,1,0,5,0.09
2013-1-12,56.5,47.5,42.7,49.5,44.6,41.7,97,90,77,30.17,30.10,1,0,4,0.00
2013-1-13,49.7,46.3,42.4,49.2,45.5,40.6,98,97,93,30.14,29.98,1,0,6,0.02
2013-1-14,58.1,53.3,42.1,57.8,49.0,36.9,99,86,60,30.29,29.96,2,0,5,0.11
2013-1-15,41.6,39.4,36.2,39.8,38.1,35.2,96,95,91,30.34,30.15,8,0,8,0.69
2013-1-16,42.2,38.5,35.5,41.4,37.5,34.5,97,96,96,30.16,29.84,6,0,6,0.32
2013-1-17,45.0,41.9,38.6,41.6,35.8,31.3,97,80,63,30.13,29.97,5,0,5,0.01
2013-1-18,38.7,34.3,27.5,32.8,20.6,11.0,79,58,35,30.50,30.02,10,1,10,0.01
2013-1-19,54.4,42.6,30.9,30.9,27.1,18.3,76,56,37,30.43,29.97,7,1,10,0.00
2013-1-20,59.0,47.1,35.2,34.2,25.2,12.7,65,44,23,30.09,29.81,21,1,21,0.00
2013-1-21,41.7,35.5,30.6,32.4,21.9,14.3,71,57,48,30.11,29.80,12,1,12,0.00
2013-1-22,30.5,22.3,17.7,15.1,2.3,-3.4,54,42,31,30.31,29.92,14,2,14,0.00
2013-1-23,26.5,20.7,12.2,8.6,3.6,0.8,71,48,34,30.36,30.16,13,1,13,0.00
2013-1-24,26.4,21.5,15.9,17.2,10.6,4.0,88,64,39,30.52,30.11,14,1,14,0.00
2013-1-25,24.6,19.1,13.4,19.3,11.6,5.7,90,74,45,30.52,30.09,5,0,5,0.00
2013-1-26,34.1,26.7,21.5,22.8,20.1,17.6,89,76,59,30.44,30.10,9,0,9,0.03
2013-1-27,37.9,27.3,17.9,22.9,19.9,15.5,92,75,49,30.62,30.44,10,0,10,0.01
2013-1-28,41.1,35.6,26.0,38.4,32.5,22.9,95,89,77,30.52,30.05,6,0,6,0.06
2013-1-29,65.7,49.1,33.6,53.7,43.9,32.3,97,83,62,30.14,29.99,6,0,6,0.00
2013-1-30,71.1,58.8,44.9,62.8,55.0,43.0,98,88,70,29.99,29.23,13,1,13,0.49
2013-1-31,62.2,44.7,29.3,61.6,30.1,15.1,98,58,33,29.92,29.14,24,4,24,0.69
2013-2-1,32.9,27.6,21.1,27.0,13.9,6.2,89,57,40,30.39,29.82,23,2,23,0.01
2013-2-2,32.7,25.8,18.0,26.2,14.3,7.2,91,63,39,30.40,30.03,6,1,7,0.00
2013-2-3,35.9,29.5,21.6,29.9,25.4,19.6,94,85,69,30.03,29.84,15,0,15,0.02
2013-2-4,36.4,31.1,24.4,24.5,17.9,12.9,75,58,45,30.12,29.91,15,1,15,0.00
2013-2-5,39.5,34.2,29.8,30.3,27.7,23.4,88,77,64,29.95,29.86,4,0,4,0.00
2013-2-6,45.2,36.8,27.4,33.8,28.2,23.4,93,72,51,30.37,29.94,11,1,11,0.00
2013-2-7,39.2,32.9,25.2,31.0,25.8,22.0,91,76,58,30.47,30.22,9,1,9,0.00
2013-2-8,44.0,38.2,33.9,41.5,34.5,25.1,96,87,65,30.22,29.73,18,1,18,0.24
2013-2-9,39.8,33.6,29.2,25.2,20.3,17.3,68,58,45,30.40,29.89,18,2,18,0.00
2013-2-10,43.4,33.0,20.5,32.9,20.4,13.7,89,62,35,30.50,30.26,8,1,8,0.00
2013-2-11,55.1,46.0,37.2,51.7,43.8,32.8,98,92,82,30.26,29.70,8,1,8,0.34
2013-2-12,55.7,47.6,37.6,43.7,31.5,28.7,81,55,36,30.00,29.80,6,1,15,0.00
2013-2-13,46.6,38.6,29.5,36.0,32.1,26.2,94,78,59,29.97,29.66,9,1,9,0.14
2013-2-14,48.7,38.7,32.1,34.4,31.1,24.1,96,77,39,30.03,29.77,9,0,9,0.10
2013-2-15,58.9,44.5,33.5,39.9,35.6,29.9,94,73,38,30.04,29.89,8,1,8,0.07
2013-2-16,38.6,36.2,33.5,35.8,31.6,19.4,97,84,56,30.03,29.81,7,1,7,0.08
2013-2-17,33.4,29.5,25.1,21.0,14.9,9.9,69,55,40,30.20,29.81,20,3,20,0.00
2013-2-18,41.2,31.0,21.3,24.9,12.8,7.9,68,48,28,30.39,30.18,11,1,12,0.00
2013-2-19,46.0,40.7,32.4,42.8,32.6,21.2,91,74,53,30.18,29.73,10,1,10,0.10
2013-2-20,38.8,33.5,26.3,25.7,17.5,11.1,59,51,42,30.16,29.84,18,2,18,0.00
2013-2-21,39.2,31.1,24.8,19.4,16.2,12.2,63,54,42,30.33,30.13,18,2,18,0.00
2013-2-22,34.6,31.9,29.0,31.1,24.7,18.1,93,75,59,30.40,30.23,9,0,9,0.03
2013-2-23,46.0,39.7,32.9,45.1,38.6,31.1,97,96,93,30.23,29.80,6,0,6,0.12
2013-2-24,51.0,43.0,32.8,43.1,33.6,22.4,97,72,43,30.11,29.79,13,2,13,0.00
2013-2-25,47.7,36.7,27.7,28.5,25.0,21.5,86,64,44,30.23,30.10,8,0,8,0.00
2013-2-26,46.6,37.0,26.9,45.7,33.9,24.3,97,89,73,30.24,29.60,22,2,22,0.42
2013-2-27,55.7,48.9,41.4,45.8,40.0,34.5,97,73,51,29.69,29.50,12,1,12,0.02
2013-2-28,50.1,44.0,40.4,39.5,32.8,25.6,90,66,40,29.73,29.63,12,1,12,0.02
2013-3-1,45.4,42.1,37.9,34.0,30.8,26.4,75,64,54,29.87,29.71,13,1,13,0.00
2013-3-2,39.2,35.5,30.8,27.4,24.5,21.3,75,64,55,29.88,29.80,10,1,10,0.00
2013-3-3,40.5,34.8,29.6,24.6,22.4,20.5,73,61,49,29.90,29.79,14,2,14,0.00
2013-3-4,42.7,35.4,28.6,22.9,20.0,17.2,68,54,42,30.03,29.90,4,2,16,0.00
2013-3-5,47.7,38.2,25.3,31.2,24.2,13.6,85,59,25,30.09,29.83,7,1,14,0.00
2013-3-6,40.9,37.5,33.7,37.0,34.6,28.9,95,89,66,29.97,29.61,19,3,19,0.96
2013-3-7,49.6,42.8,36.2,32.8,29.9,26.0,79,61,44,30.14,29.97,11,2,11,0.00
2013-3-8,49.7,42.5,32.8,31.1,28.7,24.3,79,59,46,30.25,30.11,17,2,17,0.00
2013-3-9,60.7,46.4,35.5,29.6,25.1,18.8,75,46,21,30.34,30.23,7,1,7,0.00
2013-3-10,59.1,45.6,29.4,41.3,27.3,8.1,87,56,14,30.34,30.23,12,1,12,0.00
2013-3-11,58.4,50.6,43.3,50.3,45.2,41.1,93,82,68,30.26,29.96,12,1,12,0.00
2013-3-12,59.4,52.2,42.2,56.6,46.6,32.4,97,82,59,29.98,29.70,14,2,14,0.65
2013-3-13,51.7,41.9,31.4,37.6,28.5,19.6,94,62,30,30.06,29.89,14,2,14,0.00
2013-3-14,35.8,34.8,34.1,21.5,20.2,18.8,56,55,53,30.06,30.05,12,3,13,0.00
2013-3-15,56.5,43.1,28.0,32.4,24.9,19.5,86,52,30,30.09,29.78,3,1,12,0.00
2013-3-16,54.8,43.2,37.4,41.8,35.6,32.3,83,75,57,29.93,29.66,11,2,11,0.00
2013-3-17,41.9,38.3,34.2,34.3,31.1,25.6,91,75,61,30.28,29.91,7,1,7,0.00
2013-3-18,39.4,37.3,33.7,37.3,30.7,20.8,97,78,52,30.34,29.88,12,1,12,0.31
2013-3-19,59.2,46.7,38.1,42.7,32.5,9.2,97,66,18,29.91,29.71,16,2,20,0.01
2013-3-20,54.2,45.2,36.2,23.5,17.8,13.3,54,34,22,30.00,29.77,13,2,13,0.00
2013-3-21,43.8,36.1,30.0,27.4,17.2,9.8,75,47,31,29.90,29.74,14,2,14,0.00
2013-3-22,46.9,37.2,29.2,21.5,18.2,11.6,57,46,33,30.00,29.88,14,2,14,0.00
2013-3-23,34.8,30.0,27.7,23.0,21.7,20.6,79,71,56,30.02,29.99,1,0,3,0.00
2013-3-28,49.3,43.8,36.8,33.5,30.4,27.5,74,60,43,30.22,30.09,3,2,14,0.00
2013-3-29,55.5,48.8,41.9,33.0,30.8,27.8,66,51,36,30.26,30.15,3,1,12,0.00
2013-3-30,60.2,48.0,35.8,37.0,30.4,22.8,85,55,26,30.24,30.11,2,0,8,0.00
2013-3-31,55.2,47.2,36.3,50.6,42.3,30.9,94,83,67,30.14,29.74,3,1,10,0.02
2013-4-1,66.6,50.9,39.5,48.6,38.6,23.4,98,67,40,29.97,29.71,5,1,21,0.01
2013-4-2,49.4,42.2,32.6,22.7,18.3,14.6,61,39,25,30.16,29.98,4,1,13,0.00
2013-4-3,51.1,39.7,28.5,25.4,18.4,11.7,76,44,25,30.38,30.17,6,1,13,0.00
2013-4-4,36.2,29.4,25.0,22.4,19.7,18.3,83,68,51,30.42,30.37,3,0,3,0.00
2013-4-5,65.3,55.4,38.2,42.0,32.7,24.1,96,48,24,30.10,29.80,10,1,10,0.20
2013-4-6,54.2,46.7,37.6,35.0,23.2,15.8,69,40,24,30.33,30.03,3,1,8,0.00
2013-4-7,68.1,53.4,38.9,46.1,39.3,29.7,87,61,38,30.29,29.98,2,1,9,0.00
2013-4-8,78.4,67.5,55.0,53.8,48.2,43.2,65,51,36,30.07,29.95,3,1,12,0.00
2013-4-9,86.2,73.3,63.7,57.3,54.2,52.3,69,53,33,30.05,29.90,2,1,12,0.44
2013-4-10,91.7,79.3,65.3,60.0,56.0,53.9,69,47,30,29.95,29.76,8,1,9,0.00
2013-4-11,80.1,71.0,65.7,59.1,58.4,56.6,77,65,45,29.89,29.81,9,1,9,0.00
2013-4-12,65.2,56.0,51.8,62.3,54.7,50.5,98,95,90,29.83,29.59,3,2,15,0.63
2013-4-13,67.2,55.6,42.7,52.7,44.7,39.0,98,70,39,29.93,29.74,3,1,10,0.00
2013-4-14,67.0,55.7,41.3,46.7,41.8,36.4,96,65,33,30.13,29.94,2,1,11,0.00
2013-4-15,61.4,56.8,52.7,51.3,49.1,45.0,93,76,64,30.29,30.12,3,1,10,0.02
2013-4-16,72.8,62.5,50.5,59.3,55.4,48.6,93,78,62,30.31,30.11,3,0,9,0.00
2013-4-17,76.7,65.5,56.9,63.4,58.4,55.4,96,79,59,30.23,30.10,8,1,10,0.00
2013-4-18,75.4,64.4,58.1,64.9,58.6,53.6,97,82,62,30.23,30.00,13,2,13,0.09
2013-4-19,79.8,66.9,52.6,67.2,61.6,50.6,96,84,63,30.01,29.58,11,1,11,0.74
2013-4-20,62.4,53.4,47.6,51.2,36.4,28.9,95,56,31,30.32,29.77,13,1,13,0.08
2013-4-21,54.9,46.4,38.1,35.7,28.3,22.5,79,50,32,30.60,30.32,9,1,9,0.00
2013-4-22,55.6,46.3,33.1,41.1,36.9,31.6,95,71,52,30.59,30.41,13,1,13,0.00
2013-4-23,62.2,51.3,43.7,45.9,42.8,39.6,93,74,50,30.41,30.13,9,1,9,0.00
2013-4-24,43.7,43.0,42.3,42.0,41.6,41.0,95,95,94,30.13,30.10,0,0,0,0.00
2013-4-25,66.3,55.6,46.4,55.4,37.9,29.9,80,54,27,30.29,29.95,2,1,23,0.01
2013-4-26,68.7,55.1,41.4,42.8,38.3,30.6,93,59,27,30.44,30.29,1,0,7,0.00
2013-4-27,69.7,55.9,40.0,47.3,39.4,33.6,95,60,28,30.42,30.29,2,0,11,0.00
2013-4-28,69.7,58.9,42.0,48.0,40.3,34.1,95,52,30,30.29,30.15,7,1,16,0.00
2013-4-29,59.9,56.4,53.2,57.7,54.3,43.8,97,93,61,30.17,30.06,13,1,13,0.44
2013-4-30,59.4,56.0,49.2,57.8,54.8,48.2,98,96,84,30.28,30.08,9,1,9,0.20
2013-5-1,68.4,56.7,44.2,49.5,45.4,38.1,98,70,34,30.42,30.28,12,1,12,0.00
2013-5-2,67.2,54.9,42.2,52.8,47.0,41.1,97,77,46,30.44,30.31,11,1,11,0.00
2013-5-3,65.5,53.4,43.0,50.2,44.7,42.0,97,75,48,30.38,30.30,12,1,12,0.00
2013-5-4,67.5,55.6,44.5,49.2,45.3,41.0,95,70,45,30.34,30.18,12,1,12,0.00
2013-5-5,61.6,52.3,45.1,48.2,44.0,40.3,91,74,54,30.25,30.15,12,1,12,0.00
2013-5-6,62.4,55.3,47.1,58.5,52.6,44.8,96,91,85,30.19,30.06,11,1,11,0.00
2013-5-7,62.9,60.0,57.7,62.2,59.2,56.7,98,97,96,30.08,29.93,13,2,13,0.89
2013-5-8,70.3,60.9,55.9,62.1,57.9,54.7,99,91,70,30.00,29.93,6,0,6,0.06
2013-5-9,76.7,63.3,52.3,61.3,57.4,51.7,99,83,55,29.99,29.91,4,0,4,0.00
2013-5-10,84.3,69.5,53.7,64.4,59.4,52.9,98,74,45,30.01,29.86,8,0,8,0.36
2013-5-11,79.2,68.2,63.3,68.4,64.3,62.3,98,88,63,29.92,29.69,8,0,8,0.19
2013-5-12,66.7,60.5,48.6,63.1,45.5,30.6,98,62,28,30.02,29.72,12,1,12,0.02
2013-5-13,62.7,51.3,38.5,40.8,33.3,25.5,94,55,26,30.16,30.02,11,1,11,0.00
2013-5-14,65.9,51.9,34.7,48.9,37.2,30.1,95,62,31,30.21,30.06,7,0,7,0.00
2013-5-15,78.8,67.6,56.6,65.8,57.1,48.9,90,70,53,30.07,29.67,7,0,8,0.00
2013-5-16,76.8,75.5,72.2,64.9,62.7,61.5,71,65,60,29.74,29.73,2,0,2,0.00
2013-5-17,83.1,70.4,56.8,61.4,53.8,44.0,96,60,30,30.14,29.90,2,0,7,0.00
2013-5-18,67.3,62.5,59.2,58.7,56.8,51.7,95,82,63,30.24,30.15,8,1,8,0.02
2013-5-19,72.3,65.1,59.6,67.6,63.2,58.2,98,94,83,30.21,30.09,5,0,5,0.02
2013-5-20,67.3,65.7,64.0,66.1,64.8,63.4,98,97,95,30.12,30.06,3,0,3,0.00
2013-5-24,65.8,58.3,51.1,64.9,52.3,37.4,98,81,57,30.13,29.72,2,1,10,0.07
2013-5-25,66.4,56.2,44.9,41.5,38.8,35.7,73,54,37,30.15,30.06,2,1,15,0.00
2013-5-26,72.6,59.6,43.7,45.9,41.1,37.7,86,54,29,30.20,30.11,1,0,11,0.00
2013-5-27,73.8,61.1,45.1,54.8,46.8,40.5,93,64,32,30.28,30.17,1,0,4,0.00
2013-5-28,77.3,66.8,56.7,69.6,62.4,54.0,97,86,68,30.20,30.06,1,0,5,0.11
2013-5-29,91.7,78.2,67.0,71.5,67.9,64.8,97,73,44,30.11,30.05,1,0,6,0.00
2013-5-30,94.0,82.7,69.8,75.2,70.4,64.7,96,68,44,30.17,30.09,8,0,8,0.01
2013-5-31,93.0,81.2,65.5,70.9,67.0,64.2,97,66,41,30.15,30.01,7,0,7,0.00
2013-6-1,92.8,80.7,69.3,74.4,68.1,64.1,88,67,48,30.04,29.91,7,0,7,0.00
2013-6-2,89.1,78.6,69.4,72.3,68.7,64.8,96,73,56,29.92,29.82,7,1,7,0.17
2013-6-3,81.3,71.9,66.9,72.3,68.8,62.5,98,91,68,29.92,29.79,5,0,5,0.45
2013-6-4,78.2,67.0,57.5,62.3,52.6,44.1,91,63,35,30.11,29.92,8,0,8,0.00
2013-6-5,80.0,66.9,53.2,60.9,56.2,51.6,97,72,40,30.17,30.05,9,0,9,0.00
2013-6-6,74.7,67.0,58.7,65.8,61.0,54.7,97,82,65,30.09,29.86,10,1,10,0.31
2013-6-7,71.4,69.1,66.2,70.8,68.5,65.6,99,98,97,29.87,29.55,9,0,9,2.33
2013-6-8,81.3,70.3,64.2,67.5,65.1,62.8,99,85,59,30.08,29.66,6,0,6,0.01
2013-6-9,80.5,72.0,62.8,70.8,66.3,62.2,98,83,65,30.19,30.08,6,0,6,0.00
2013-6-10,80.8,73.4,69.1,76.3,71.7,67.0,98,94,83,30.10,29.78,12,0,12,1.80
2013-6-11,85.6,75.8,66.7,71.1,67.4,65.2,99,77,55,29.83,29.75,7,0,7,0.01
2013-6-12,88.7,77.8,65.2,76.1,68.9,63.7,96,76,55,29.85,29.77,6,0,6,0.00
2013-6-13,88.9,72.7,69.3,74.4,67.9,61.0,95,85,54,29.81,29.44,5,1,10,0.75
2013-6-14,69.5,63.9,59.4,61.4,58.8,56.0,95,84,70,29.84,29.56,13,1,13,0.07
2013-6-15,84.5,71.6,58.8,64.4,59.6,57.1,94,69,40,30.06,29.96,1,0,5,0.00
2013-6-16,84.7,73.7,61.4,70.8,64.9,59.7,96,76,53,30.01,29.86,1,0,6,0.00
2013-6-17,89.2,78.0,67.8,73.1,69.4,65.0,93,76,54,29.94,29.86,1,0,5,0.00
2013-6-18,78.4,71.4,63.5,72.4,69.0,62.9,98,92,75,29.91,29.79,1,0,6,0.33
2013-6-19,76.4,67.0,61.4,65.3,62.2,58.4,99,86,54,30.15,29.87,1,0,7,0.00
2013-6-20,80.7,70.2,59.7,64.9,60.0,55.4,98,73,44,30.26,30.15,8,0,8,0.00
2013-6-21,81.0,69.3,55.5,64.2,57.8,37.1,97,71,24,30.30,30.23,7,0,7,0.00
2013-6-22,83.3,66.9,60.5,68.2,62.9,59.7,98,89,55,30.25,30.22,4,0,4,0.00
2013-6-23,84.9,74.5,65.2,75.2,70.9,64.3,97,89,71,30.19,30.06,1,0,4,0.11
2013-6-24,94.2,81.0,70.1,77.5,73.2,68.5,98,79,50,30.11,29.99,6,0,6,0.13
2013-6-25,93.8,81.3,68.0,76.6,71.5,65.3,98,75,49,30.03,29.87,11,0,11,0.03
2013-6-26,92.8,78.2,67.9,78.2,71.3,66.8,97,81,53,29.93,29.78,7,0,7,0.24
2013-6-27,84.8,75.4,68.9,77.5,72.4,68.3,99,91,74,29.82,29.59,8,1,8,0.10
2013-6-28,90.0,76.1,69.8,75.7,71.5,68.0,98,87,56,29.62,29.48,6,0,6,0.38
2013-6-29,89.5,77.0,65.9,74.8,69.8,62.5,99,81,43,29.69,29.51,7,0,7,0.01
2013-6-30,84.8,76.4,71.3,77.8,74.5,70.4,98,94,75,29.84,29.69,8,0,8,0.42
2013-7-1,84.0,77.0,72.0,77.0,74.3,71.2,98,92,77,29.99,29.84,7,0,7,0.02
2013-7-2,83.3,76.4,72.5,76.4,73.5,71.2,96,91,78,30.18,29.99,6,0,6,0.10
2013-7-3,88.0,77.4,71.6,80.6,74.0,70.5,98,90,71,30.23,30.16,6,0,6,0.28
2013-7-4,85.3,76.1,73.1,76.9,73.8,72.3,98,93,75,30.25,30.21,5,0,5,0.00
2013-7-5,91.5,82.0,73.4,77.0,74.2,72.2,97,79,59,30.22,30.11,1,0,8,0.00
2013-7-6,94.0,84.1,74.5,77.9,74.5,72.2,95,74,52,30.18,30.05,1,0,8,0.00
2013-7-7,93.7,81.4,71.3,76.7,73.4,69.8,95,79,55,30.10,29.98,2,0,9,0.01
2013-7-8,88.8,80.0,70.7,75.6,71.7,68.1,98,77,55,30.09,30.02,5,0,5,0.01
2013-7-9,86.7,78.2,70.7,77.3,73.5,69.5,97,86,68,30.09,29.99,3,0,3,0.00
2013-7-10,89.8,80.4,73.7,80.2,75.2,71.5,95,85,65,30.01,29.84,8,0,8,0.03
2013-7-11,83.3,75.1,73.6,74.6,72.4,71.6,97,91,68,29.91,29.83,4,0,6,0.01
2013-7-12,73.8,70.3,67.0,72.6,69.5,66.0,98,97,94,30.00,29.87,6,0,6,0.58
2013-7-13,70.8,69.5,67.9,69.8,68.9,67.6,99,98,96,30.11,30.00,2,0,2,0.02
2013-7-15,92.6,81.8,70.7,78.3,75.0,70.1,99,82,58,30.29,30.16,1,0,6,0.00
2013-7-16,92.3,83.5,75.9,79.2,75.4,71.6,97,79,53,30.21,30.14,1,0,6,0.00
2013-7-17,92.6,82.4,72.5,79.6,75.4,71.6,98,81,56,30.19,30.08,1,0,7,0.00
2013-7-18,97.3,84.2,73.9,80.4,77.5,73.3,98,82,56,30.10,29.98,1,0,5,0.00
2013-7-19,97.2,86.0,77.9,80.9,77.8,73.2,96,78,55,30.00,29.85,1,0,7,0.00
2013-7-20,95.6,85.1,76.0,80.0,75.9,70.5,97,76,51,29.88,29.77,1,0,7,0.00
2013-7-21,92.2,77.9,71.8,76.8,73.3,70.5,97,87,57,29.93,29.87,1,0,5,0.00
2013-7-22,88.3,80.1,72.9,79.0,75.2,72.3,98,86,68,29.91,29.75,6,0,7,0.00
2013-7-23,89.2,79.3,72.7,77.9,73.3,69.8,99,83,60,29.76,29.62,5,0,7,0.32
2013-7-24,83.1,75.7,68.6,73.0,69.1,61.2,97,81,64,29.90,29.67,1,0,6,0.00
2013-7-25,78.0,69.5,62.2,66.8,61.5,55.8,95,76,65,30.02,29.90,1,0,8,0.00
2013-7-26,66.3,64.4,63.0,64.0,62.9,61.8,97,95,92,30.05,30.02,0,0,1,0.00
2013-7-28,84.8,77.1,71.9,74.7,72.7,70.4,95,87,65,29.98,29.87,3,0,4,0.00
2013-7-29,85.5,73.0,63.1,70.9,61.1,55.2,95,69,40,30.15,29.96,7,0,7,0.00
2013-7-30,84.3,71.2,59.0,66.1,61.7,57.8,97,75,45,30.22,30.13,6,0,6,0.00
2013-7-31,81.8,72.6,63.2,71.9,67.2,62.3,98,84,63,30.15,30.01,6,0,6,0.00
2013-8-1,82.3,73.4,67.8,75.7,71.2,66.7,99,93,74,30.01,29.79,5,0,5,0.45
2013-8-2,87.5,76.8,65.7,71.9,68.3,65.1,99,78,49,29.95,29.84,5,0,5,0.00
2013-8-5,79.8,72.5,57.4,65.2,62.2,56.3,96,72,50,30.10,30.00,6,0,6,0.00
2013-8-6,73.0,68.3,62.8,69.1,66.0,61.3,96,93,85,30.08,30.00,5,0,5,0.01
2013-8-7,82.5,75.0,69.0,75.3,71.5,67.9,97,89,75,30.08,29.99,7,0,7,0.00
2013-8-8,88.1,78.3,72.9,77.2,74.1,71.4,98,88,67,30.03,29.97,4,0,7,0.22
2013-8-9,91.3,79.8,75.2,81.1,76.3,73.3,98,90,62,29.97,29.83,7,0,7,0.91
2013-8-10,83.0,75.3,68.3,74.7,70.7,65.4,99,87,57,30.08,29.92,4,0,4,0.00
2013-8-11,83.7,74.5,67.4,74.5,70.2,66.8,99,87,69,30.11,30.00,7,0,7,0.00
2013-8-12,77.8,69.9,68.1,74.0,69.1,67.5,99,97,88,30.02,29.98,1,0,1,0.00
2013-8-13,84.3,76.8,70.9,75.0,72.9,69.7,98,89,66,29.90,29.72,1,0,6,0.76
2013-8-14,74.8,67.6,59.2,70.4,57.3,51.5,98,71,51,30.08,29.79,1,0,10,0.01
2013-8-15,77.3,64.9,53.7,59.6,55.7,51.1,98,76,44,30.18,30.08,1,0,7,0.00
2013-8-16,77.1,66.0,54.8,65.3,58.8,54.2,98,80,49,30.19,30.13,1,0,6,0.00
2013-8-17,77.1,67.3,56.8,66.2,61.2,56.2,98,83,59,30.26,30.19,2,0,10,0.00
2013-8-18,72.2,68.4,64.2,67.3,64.9,62.3,97,89,75,30.22,30.15,7,0,7,0.07
2013-8-19,77.2,69.0,61.4,68.7,65.1,60.8,99,88,72,30.17,30.06,4,0,4,0.00
2013-8-20,88.5,73.7,61.6,74.7,68.9,61.0,99,86,58,30.16,30.08,6,0,6,0.00
2013-8-21,89.0,77.5,67.2,76.9,72.1,66.6,99,85,59,30.19,30.06,7,0,7,0.04
2013-8-22,90.5,78.8,71.0,74.7,71.6,67.7,98,81,49,30.09,29.92,5,0,5,0.01
2013-8-23,77.3,70.1,61.3,72.3,66.9,60.0,98,90,72,30.10,29.92,4,0,4,0.01
2013-8-24,80.7,68.4,58.0,68.7,61.9,57.1,98,82,51,30.33,30.10,7,0,7,0.00
2013-8-25,80.3,67.5,56.9,67.1,58.5,50.3,98,77,42,30.41,30.26,7,0,7,0.00
2013-8-26,88.8,74.7,60.1,67.5,62.8,57.4,94,69,43,30.29,29.99,7,0,7,0.00
2013-8-27,91.5,79.3,69.6,75.7,70.4,66.6,95,76,55,29.99,29.86,5,0,5,0.00
2013-8-28,83.0,75.0,71.3,77.0,72.7,70.2,98,93,75,29.90,29.81,1,0,5,0.08
2013-8-29,83.3,75.1,70.3,73.8,71.3,69.4,98,89,65,30.02,29.83,1,0,9,0.02
2013-8-30,87.7,76.4,67.0,73.2,71.0,66.2,98,84,56,30.03,29.88,5,0,6,0.00
2013-8-31,91.3,79.4,70.0,76.2,72.7,68.8,96,81,60,29.91,29.78,6,0,6,0.00
2013-9-1,91.0,79.1,68.8,77.6,73.2,67.9,98,83,58,29.84,29.74,8,0,8,0.00
2013-9-2,90.8,80.1,71.7,76.2,73.3,70.8,99,81,55,29.79,29.70,6,0,6,0.08
2013-9-3,85.3,77.2,68.2,73.3,65.7,57.6,97,70,46,29.95,29.71,7,0,7,0.00
2013-9-4,83.8,69.5,57.1,63.0,57.4,49.4,96,70,32,30.07,29.94,5,0,5,0.00
2013-9-5,85.4,71.5,59.4,66.7,60.5,51.3,97,71,46,30.12,29.99,9,0,9,0.00
2013-9-6,76.0,64.2,55.3,56.9,52.2,46.4,95,68,41,30.25,30.12,7,0,7,0.00
2013-9-7,82.8,66.9,52.0,64.6,58.5,51.2,97,77,45,30.14,29.93,3,0,5,0.00
2013-9-8,87.4,74.2,62.7,70.3,65.4,58.5,97,76,51,30.04,29.86,7,0,7,0.00
2013-9-9,78.6,69.5,59.7,69.4,60.8,51.8,89,74,61,30.19,30.04,6,0,6,0.00
2013-9-10,91.5,79.1,69.6,75.6,72.3,68.4,97,81,56,30.17,30.07,8,0,8,0.00
2013-9-11,94.4,81.9,71.7,78.6,73.7,70.8,98,79,48,30.13,29.99,8,0,8,0.00
2013-9-12,77.5,76.0,75.0,72.2,71.5,70.9,88,86,83,29.99,29.94,2,0,2,0.00
2013-10-3,81.6,69.1,59.2,70.2,64.8,58.3,98,87,62,30.11,30.03,1,0,3,0.00
2013-10-4,87.1,71.9,59.6,70.4,65.9,59.0,98,84,54,30.08,29.99,1,0,6,0.00
2013-10-5,87.0,73.7,64.3,71.5,67.6,63.4,98,83,51,30.08,29.99,1,0,4,0.00
2013-10-6,85.5,73.5,63.1,72.5,68.1,62.5,99,84,60,30.02,29.92,2,1,9,0.00
2013-10-7,75.8,66.9,54.2,72.9,64.8,52.8,98,93,88,30.03,29.79,2,0,11,0.78
2013-10-8,64.6,55.8,48.2,54.5,50.9,47.4,97,85,58,30.27,30.04,1,0,8,0.01
2013-10-9,60.4,57.3,51.9,54.8,53.4,49.8,97,87,77,30.31,30.19,8,0,8,0.19
2013-10-10,58.4,56.3,54.1,58.0,55.6,53.3,99,98,96,30.19,29.96,9,1,9,1.27
2013-10-11,63.7,61.1,58.3,63.3,60.7,57.7,99,99,98,29.99,29.91,9,1,9,1.85
2013-10-12,66.0,62.7,60.7,62.9,61.2,58.9,99,95,80,30.16,29.97,9,1,9,0.51
2013-10-13,65.0,60.6,55.2,60.6,58.6,53.8,98,93,83,30.33,30.15,10,1,10,0.12
2013-10-14,66.3,59.6,51.9,58.2,55.9,51.3,98,88,72,30.33,30.22,7,0,7,0.00
2013-10-15,68.8,58.1,48.4,59.0,52.3,41.7,99,84,40,30.24,30.08,5,0,5,0.00
2013-10-16,69.8,63.4,59.4,64.0,60.9,58.1,97,92,80,30.08,29.91,4,0,4,0.00
2013-10-17,74.2,64.4,59.6,67.2,62.3,59.0,99,93,75,29.92,29.72,6,0,6,0.06
2013-10-18,66.3,57.4,48.0,60.8,49.2,45.3,96,76,48,30.01,29.80,6,0,6,0.00
2013-10-27,60.1,49.1,38.0,40.8,37.9,34.8,93,68,45,30.15,29.94,1,0,9,0.00
2013-10-28,63.1,47.6,35.3,48.3,41.6,34.3,97,82,50,30.28,30.15,1,0,5,0.00
2013-10-29,61.9,49.0,39.3,48.6,43.5,38.5,97,83,56,30.38,30.28,1,0,5,0.00
2013-10-30,65.2,53.6,45.6,58.9,51.6,44.0,98,93,80,30.33,30.15,1,0,6,0.07
2013-10-31,69.9,61.4,51.3,61.6,57.9,50.8,99,89,75,30.20,29.81,1,0,8,0.01
2013-11-1,72.5,66.8,57.2,65.2,62.0,56.4,97,85,70,29.78,29.60,2,1,12,0.18
2013-11-2,69.3,59.8,47.6,57.3,47.7,41.1,98,66,47,29.88,29.63,9,0,9,0.02
2013-11-3,55.9,47.8,40.5,44.2,35.8,25.3,91,66,33,30.46,29.87,10,1,10,0.00
2013-11-4,45.4,38.7,32.4,31.5,26.4,19.3,88,63,36,30.64,30.46,8,0,8,0.00
2013-11-5,58.4,46.1,34.2,49.1,41.6,31.0,90,85,65,30.61,30.47,3,0,6,0.00
2013-11-6,68.3,57.0,46.6,54.9,51.0,44.2,95,81,60,30.47,30.07,9,0,9,0.00
2013-11-7,63.0,57.4,52.1,58.7,54.4,44.3,97,90,67,30.07,29.86,10,1,10,0.02
2013-11-8,51.7,42.0,32.3,32.7,28.8,26.0,86,61,40,30.32,30.08,3,1,12,0.00
2013-11-9,54.4,48.6,29.3,34.4,31.2,26.6,91,52,40,30.36,30.03,6,0,6,0.00
2013-11-10,63.3,50.3,39.9,39.3,32.7,29.1,77,52,30,30.22,29.94,17,1,17,0.00
2013-11-11,57.7,48.3,34.1,35.2,32.1,28.5,83,55,38,30.31,30.00,8,0,8,0.00
2013-11-12,52.6,42.2,30.6,39.9,26.2,15.5,72,53,39,30.39,29.97,5,1,10,0.00
2013-11-13,43.7,34.7,28.3,24.3,21.5,17.4,73,59,41,30.47,30.39,9,1,9,0.00
2013-11-14,58.6,42.3,26.4,27.3,22.6,14.9,83,50,18,30.40,30.23,6,0,6,0.00
2013-11-15,59.2,43.8,29.0,42.2,32.0,24.8,88,65,34,30.29,30.19,5,0,5,0.01
2013-11-16,47.7,45.9,45.5,46.6,44.0,42.3,96,93,88,30.32,30.24,2,0,2,0.25
2013-11-17,65.2,57.0,51.0,59.5,54.7,50.5,98,92,80,30.25,29.77,2,0,7,0.00
2013-11-18,68.5,61.5,50.8,63.4,35.6,23.6,96,41,19,29.92,29.69,18,2,18,0.15
2013-11-19,50.7,45.1,36.2,31.1,28.6,26.9,70,53,43,30.37,29.92,10,1,10,0.00
2013-11-20,44.2,36.5,29.4,29.8,26.9,25.5,85,69,52,30.57,30.36,9,1,9,0.00
2013-11-21,50.7,40.8,28.7,41.3,34.9,25.3,92,80,67,30.58,30.40,4,0,4,0.00
2013-11-22,61.2,53.5,44.9,53.3,48.1,40.1,88,82,72,30.40,29.99,5,0,5,0.00
2013-11-23,58.4,46.0,33.2,52.6,30.1,14.8,81,55,34,30.19,30.00,13,2,13,0.00
2013-11-24,33.2,28.6,25.0,15.2,10.6,6.8,59,47,35,30.52,30.19,19,2,19,0.00
2013-11-25,37.3,28.6,20.6,17.3,12.4,11.1,71,51,34,30.59,30.36,7,0,7,0.00
2013-11-26,57.7,38.0,33.0,56.9,31.3,16.0,98,79,45,30.36,29.55,11,0,11,1.17
2013-11-27,57.8,39.3,30.9,57.2,35.9,18.3,98,88,59,30.03,29.49,16,2,16,0.63
2013-11-28,37.7,31.6,27.1,25.2,18.7,16.1,83,59,41,30.49,30.03,13,2,13,0.00
2013-11-29,41.4,32.6,23.8,26.9,22.7,20.9,92,68,46,30.73,30.47,8,0,8,0.00
2013-11-30,38.7,31.1,22.8,27.1,23.5,19.5,89,74,54,30.73,30.39,5,0,5,0.00
2013-12-1,48.0,36.3,24.7,35.6,29.8,22.0,95,78,55,30.39,30.03,4,0,4,0.00
2013-12-2,48.1,42.3,38.4,40.4,36.7,34.5,92,81,64,30.03,29.88,5,0,5,0.00
2013-12-3,56.9,45.4,36.5,40.8,37.5,33.1,90,75,54,30.00,29.88,5,0,5,0.00
2013-12-4,53.7,46.0,36.3,50.3,43.1,33.1,96,89,79,30.09,29.99,6,0,6,0.00
2013-12-5,67.2,61.1,51.0,62.7,58.2,49.6,98,90,77,30.08,29.92,6,1,7,0.00
2013-12-6,66.2,52.6,38.6,63.8,50.9,37.3,96,94,89,30.17,29.88,10,1,10,0.48
2013-12-7,43.2,38.2,31.8,37.4,32.5,24.0,96,81,66,30.54,30.11,8,1,8,0.14
2013-12-8,33.2,30.6,28.8,32.2,26.2,22.4,96,84,72,30.60,30.28,7,1,7,0.24
2013-12-9,36.8,34.7,32.9,35.8,33.7,31.9,97,96,96,30.30,30.04,4,0,4,0.79
2013-12-10,36.6,34.0,29.9,35.1,30.9,22.0,97,89,67,30.24,29.99,7,0,7,0.13
2013-12-11,40.5,32.0,25.0,25.4,22.2,19.1,89,68,48,30.42,30.24,4,0,7,0.05
2013-12-12,31.2,28.1,24.7,24.4,15.5,9.8,91,60,44,30.44,30.25,10,1,10,0.00
2013-12-13,42.9,32.7,23.3,25.4,19.6,15.2,79,60,38,30.33,30.22,10,0,10,0.02
2013-12-14,39.8,35.4,30.4,38.1,31.5,24.7,97,86,73,30.34,29.69,7,0,7,0.76
2013-12-15,46.6,38.4,33.2,40.4,32.1,24.4,97,79,57,29.95,29.63,16,1,16,0.04
2013-12-16,37.1,34.2,32.1,28.1,25.3,20.2,81,70,59,30.21,29.95,7,0,7,0.00
2013-12-17,37.9,35.0,33.1,32.3,29.4,25.5,86,80,73,30.19,29.95,5,0,5,0.00
2013-12-18,40.6,33.9,26.0,29.5,24.9,20.5,92,71,50,30.24,29.99,11,1,11,0.00
2013-12-19,59.3,41.7,24.2,33.3,28.0,21.4,93,63,34,30.22,30.08,6,0,6,0.00
2013-12-20,60.1,54.0,46.5,51.3,37.1,30.1,76,53,40,30.12,30.00,6,1,6,0.00
2013-12-21,72.1,63.4,56.0,61.7,53.6,46.2,82,71,58,30.02,29.89,12,1,12,0.00
2013-12-22,71.7,69.4,67.3,64.8,63.7,61.9,85,82,78,29.95,29.82,14,2,14,0.08
2013-12-23,63.8,53.4,40.2,63.2,49.5,30.6,98,87,67,30.23,29.93,13,1,13,0.54
2013-12-24,40.7,33.7,25.1,30.8,23.0,9.6,84,65,42,30.47,30.19,12,1,13,0.00
2013-12-25,32.3,25.7,20.0,20.1,15.0,12.0,83,64,45,30.58,30.40,6,0,7,0.00
2013-12-26,43.8,31.9,22.0,26.8,23.9,18.7,92,74,48,30.40,30.23,6,0,6,0.00
2013-12-27,49.4,35.1,24.2,28.3,23.1,19.9,92,66,31,30.44,30.32,7,0,7,0.00
2013-12-28,57.4,48.3,28.4,31.0,28.7,23.7,84,48,31,30.34,30.12,6,0,6,0.00
2013-12-29,48.2,45.7,41.8,46.9,39.9,29.4,97,82,49,30.12,29.52,10,1,10,0.94
2013-12-30,45.2,38.3,33.5,41.8,32.4,23.1,97,80,65,30.20,29.82,12,1,12,0.00
2013-12-31,45.7,35.3,28.4,32.0,23.8,19.2,76,63,46,30.35,30.11,18,1,18,0.00
2014-1-1,44.6,34.0,25.7,33.5,27.3,21.1,90,77,55,30.43,30.15,7,0,7,0.00
2014-1-2,36.8,33.2,30.0,34.4,31.4,28.2,95,93,90,30.15,29.61,6,0,6,0.01